Temperature
17 17 16 16 15 15 15 14 14 14 14 14 13 13 13 13 12 12 12 12 12 11 11 11 11 11 11 11 10 10 10 10 10 11 11 11 11 12 12 12 12 13 13
17 17 16 16 15 15 15 15 14 14 14 14 13 13 13 13 12 12 12 12 12 11 11 11 11 11 11 10 10 10 10 10 10 10 11 11 11 11 11 12 12 12 13
18 17 17 16 16 15 15 15 15 14 14 14 14 13 13 13 13 12 12 12 12 11 11 11 11 11 11 10 10 10 10 10 10 10 10 10 11 11 11 11 11 12 12
18 17 17 17 16 16 15 15 15 15 14 14 14 14 13 13 13 12 12 12 12 11 11 11 11 11 11 10 10 10 10 10 10 9 10 10 10 10 10 11 11 11 12
18 18 17 17 16 16 16 15 15 15 14 14 14 14 13 13 13 12 12 12 12 12 11 11 11 11 10 10 10 10 10 9 9 9 9 10 10 10 10 10 10 11 11
18 18 17 17 17 16 16 16 15 15 15 14 14 14 13 13 13 13 12 12 12 12 11 11 11 11 10 10 10 10 9 9 9 9 9 9 9 10 9 9 9 10 10
18 18 17 17 17 16 16 16 15 15 15 14 14 14 14 13 13 13 12 12 12 12 11 11 11 11 10 10 10 10 9 9 9 9 9 9 9 9 9 9 9 9 9
19 18 18 17 17 17 16 16 16 15 15 15 14 14 14 13 13 13 12 12 12 12 12 11 11 11 10 10 10 10 10 9 9 9 9 9 9 9 9 9 9 9 9
19 18 18 18 17 17 16 16 16 15 15 15 14 14 14 13 13 13 12 12 12 12 12 11 11 11 11 10 10 10 10 10 9 9 9 9 9 9 8 8 8 8 9
19 18 18 18 17 17 16 16 16 15 15 14 14 14 14 13 13 13 12 12 12 12 12 11 11 11 10 10 10 9 9 10 9 9 9 9 9 9 8 8 8 8 8
18 18 18 17 17 16 16 16 15 15 15 14 14 14 14 13 13 13 13 12 12 12 12 12 11 11 10 10 10 9 9 9 9 9 9 9 9 9 9 8 8 8 8
18 17 17 17 16 16 16 15 15 15 14 14 14 14 14 13 13 13 13 12 12 12 12 12 11 11 11 10 10 10 9 9 9 9 9 9 9 9 9 8 8 8 8
17 16 16 16 16 15 15 15 14 14 14 14 13 13 13 13 13 13 13 13 12 12 12 12 11 11 11 10 10 10 9 9 9 9 9 9 9 9 8 8 8 8 8
16 16 15 15 15 15 14 14 14 13 13 13 13 13 13 13 13 13 13 12 12 12 12 11 11 11 11 11 10 10 10 9 9 9 9 9 9 9 8 8 8 8 8
15 15 14 14 14 13 13 13 13 12 12 12 12 12 12 12 12 12 12 12 12 12 12 11 11 11 11 11 10 10 10 9 9 9 8 8 8 8 8 8 8 8 8
14 13 13 13 12 12 12 12 12 12 12 11 11 11 11 11 12 12 12 12 12 11 11 11 11 11 11 11 10 10 10 9 9 8 8 8 8 8 8 8 8 8 8
13 12 12 12 12 11 11 11 11 11 11 11 11 11 11 11 11 11 12 12 11 11 11 11 11 11 11 10 10 10 9 9 9 8 8 8 8 8 8 8 8 8 8
12 11 11 11 11 11 10 10 10 10 10 11 11 11 11 11 11 11 11 11 11 11 11 11 11 11 10 10 10 10 9 9 9 8 8 8 8 8 8 8 8 8 8
11 11 11 10 10 10 10 10 10 10 10 10 10 10 10 10 11 11 11 11 11 11 11 11 11 10 10 10 10 9 9 9 9 8 8 8 8 8 8 8 8 8 7
10 10 10 10 10 10 9 9 9 9 9 9 9 9 10 10 10 10 10 10 10 10 10 10 10 10 10 10 10 9 9 9 9 8 8 8 8 8 8 8 8 8 8
10 10 10 10 9 9 9 9 9 8 8 8 8 9 9 9 9 9 9 9 10 10 10 10 10 10 10 10 9 9 9 9 9 8 8 8 8 8 8 8 8 8 7
10 10 9 9 9 9 9 8 8 8 8 8 8 8 8 8 8 8 9 9 9 9 9 9 9 9 9 9 9 9 9 9 8 8 8 8 8 8 8 8 8 8 8
9 9 9 9 9 8 8 8 8 8 7 7 7 7 8 8 8 8 8 8 8 9 9 9 9 9 9 9 9 9 8 8 8 8 8 8 8 8 8 8 8 8 8
9 9 8 8 8 8 8 7 7 7 7 7 7 7 7 7 7 7 8 8 8 8 8 8 9 9 9 9 9 9 8 8 8 8 8 8 8 8 8 8 8 8 8
9 8 8 8 8 7 7 6 6 6 6 6 6 6 6 7 7 7 7 7 7 8 8 8 8 8 8 9 9 8 8 8 8 8 8 8 8 8 8 8 8 8 8
8 8 8 7 7 6 6 6 6 6 6 6 6 6 6 6 6 6 7 7 7 7 8 8 8 8 8 8 8 8 8 8 8 8 8 8 8 8 8 8 8 8 8
Wind_Speed
8 7 6 6 5 5 5 5 4 4 4 4 4 3 3 3 3 3 4 4 4 5 4 4 5 4 4 3 3 4 5 5 7 6 4 4 4 7 8 8 9 8 9
9 8 7 6 6 5 5 5 5 5 4 4 4 4 4 4 4 4 5 5 5 6 6 5 6 5 5 4 4 5 5 6 6 8 5 4 5 6 6 7 7 7 8
9 8 7 7 7 7 7 6 5 5 5 5 5 5 5 5 5 5 6 6 6 7 7 7 7 6 7 5 5 6 5 5 6 6 6 4 4 4 5 5 6 5 7
9 9 9 9 9 8 7 6 6 6 6 6 6 6 6 6 6 6 6 7 7 7 7 7 8 7 8 8 6 7 6 6 6 6 7 6 5 5 4 5 6 4 5
10 10 10 9 7 7 7 7 6 6 7 6 6 6 6 6 7 7 7 7 8 8 8 8 9 10 12 9 8 7 7 6 6 6 7 6 6 5 5 4 5 6 5
11 11 9 8 7 8 8 7 7 7 6 6 7 7 7 7 9 11 8 8 8 9 9 9 9 10 12 12 13 12 10 9 9 7 7 8 9 7 6 6 5 5 5
11 10 9 9 9 9 8 7 8 8 7 7 8 8 9 10 13 13 12 9 9 10 10 10 9 9 9 8 10 11 11 13 14 11 11 12 11 8 7 7 7 7 7
10 9 9 9 10 8 7 8 9 6 7 7 8 9 9 11 13 14 13 9 10 11 11 11 11 11 10 9 9 9 10 10 11 10 11 12 12 10 9 9 8 8 7
9 10 9 9 9 8 9 10 8 6 8 8 7 9 9 11 14 14 12 7 9 11 11 11 11 12 13 12 9 10 11 10 11 13 14 14 15 14 10 7 7 6 7
10 9 8 8 9 9 10 8 6 6 8 8 9 9 10 12 14 15 12 7 9 10 9 10 13 14 14 12 10 10 11 12 9 8 9 10 11 12 12 11 10 9 8
7 6 5 6 7 7 6 5 6 6 7 7 9 9 10 12 14 16 14 9 9 10 9 9 9 13 15 15 12 11 14 12 9 9 9 9 8 8 9 9 10 10 11
3 4 4 4 4 4 4 5 5 6 6 7 8 9 9 10 12 14 15 15 13 10 10 10 10 12 14 14 11 13 15 11 8 8 8 9 9 9 9 9 10 12 13
3 2 2 2 2 2 3 5 4 4 5 6 7 8 9 8 9 14 16 16 15 11 11 13 13 13 12 11 14 15 12 8 8 9 10 11 10 10 8 7 8 9 12
4 2 1 0 1 1 2 3 4 5 6 7 7 8 9 9 9 8 8 8 10 10 10 10 12 12 11 11 10 9 9 9 9 10 10 10 9 8 8 7 7 7 7
4 2 2 1 1 2 3 3 5 6 7 8 8 8 9 10 12 12 9 7 7 7 5 5 5 5 7 7 8 8 8 7 9 9 10 10 9 8 8 7 7 7 7
4 2 1 1 2 2 4 5 7 9 12 13 14 13 11 14 17 17 15 15 13 9 5 6 8 8 9 9 9 8 8 8 9 9 9 9 9 9 8 7 7 8 9
3 1 1 1 2 3 3 5 7 8 10 12 14 14 14 16 17 17 16 13 10 9 7 9 9 10 9 9 9 8 8 8 8 8 9 9 9 9 8 8 8 8 9
1 1 1 1 2 3 4 5 5 7 9 9 10 13 14 15 15 15 11 5 5 6 8 10 10 10 9 9 9 9 9 8 8 8 9 9 9 9 8 8 8 9 9
1 1 2 2 3 4 4 5 6 7 8 9 9 10 12 12 12 11 6 5 8 8 9 10 10 10 9 9 9 9 9 9 9 8 8 9 9 9 9 9 9 10 10
2 4 4 3 4 4 5 6 6 7 8 8 9 10 9 8 7 7 5 6 8 9 9 9 10 10 9 9 9 9 9 9 9 9 9 9 8 9 10 11 9 9 9
3 4 5 4 4 5 5 6 7 7 8 9 10 11 12 9 10 10 9 8 9 9 9 9 9 9 9 9 9 9 10 9 9 9 9 8 8 8 9 9 9 9 9
3 3 4 5 5 6 6 7 7 8 9 11 10 11 13 9 9 9 9 10 9 9 8 8 9 9 9 9 9 9 9 9 9 9 9 8 8 9 9 8 9 8 9
3 4 5 5 6 7 8 7 8 9 10 10 11 11 10 9 9 9 10 10 9 8 8 8 8 9 8 8 8 8 9 9 9 8 8 8 8 8 8 9 10 9 9
4 5 6 6 6 7 8 8 9 9 10 11 11 10 10 10 10 10 10 10 9 9 8 8 8 10 11 8 7 7 8 8 8 7 9 9 8 8 8 8 9 9 9
4 5 6 6 7 7 8 9 9 9 10 10 11 10 10 10 10 10 10 9 10 9 9 8 7 8 10 10 8 7 7 7 8 7 7 7 8 8 8 8 8 8 9
5 6 6 6 6 7 8 9 9 10 10 11 10 10 10 10 10 10 10 9 9 9 9 7 7 8 9 7 7 7 6 6 6 7 6 6 8 8 8 7 9 8 9
Wind_Direction
188 190 187 187 187 184 193 206 205 209 210 217 227 233 242 246 238 229 241 242 243 253 251 244 253 252 252 249 237 230 226 222 250 269 262 273 278 283 294 297 292 284 280
189 186 190 188 185 193 209 217 211 217 221 223 227 234 244 246 242 239 252 251 246 255 257 251 257 255 251 251 244 242 237 227 237 266 273 272 264 273 281 288 288 284 277
183 184 188 190 194 205 215 217 213 217 226 227 225 234 243 248 249 248 249 255 253 254 255 253 258 253 256 252 246 247 247 245 233 251 270 267 269 272 281 284 284 283 282
182 186 194 201 204 210 213 214 215 218 224 230 231 237 243 249 253 255 253 254 257 257 256 253 255 250 253 254 251 248 247 249 245 250 265 270 269 270 265 273 282 276 281
183 192 205 207 207 209 213 217 218 221 228 231 236 244 246 248 250 250 250 253 253 260 262 257 256 255 252 248 249 247 242 246 251 254 263 267 267 264 260 258 271 282 279
188 200 204 199 201 211 218 217 220 228 232 230 236 243 248 250 250 250 247 251 254 257 264 266 263 263 262 259 254 249 238 241 248 251 257 261 265 261 258 256 262 274 280
194 201 200 199 205 214 217 215 223 229 228 233 239 240 247 253 255 258 255 249 251 254 256 261 266 262 255 260 264 264 256 245 238 243 254 258 261 255 250 256 252 251 257
198 203 202 201 211 212 210 220 226 223 225 234 240 240 246 257 256 256 257 253 253 254 252 251 255 262 259 253 260 264 264 259 249 245 247 253 255 255 245 250 258 261 263
203 210 208 203 207 209 215 223 223 220 229 232 238 239 245 258 258 257 254 251 254 258 255 249 246 253 255 248 248 258 267 269 260 248 244 250 252 251 243 242 243 245 260
208 209 204 198 203 212 220 225 221 222 235 238 244 244 244 254 258 255 247 242 252 259 260 253 243 243 250 246 240 246 259 267 270 272 264 263 261 258 244 233 235 240 250
199 190 190 197 207 218 224 226 228 231 240 246 253 258 254 253 260 259 248 232 241 252 257 259 252 239 242 245 239 239 246 255 266 268 271 271 267 259 252 238 231 231 237
162 177 197 206 215 222 224 237 236 234 243 254 261 270 267 259 254 259 253 238 232 240 250 255 254 248 245 247 245 242 245 251 257 260 263 265 264 260 254 246 237 234 236
139 174 213 214 214 223 230 246 249 243 249 261 263 269 274 272 263 253 256 252 239 234 246 247 250 254 255 256 250 247 247 245 243 250 257 260 259 260 259 255 250 242 242
119 121 107 88 306 259 239 241 249 256 261 265 266 269 272 275 275 270 262 260 252 242 247 253 256 256 252 253 258 255 244 238 237 247 255 261 262 257 253 247 249 244 244
99 86 68 36 327 306 292 268 263 258 252 256 266 266 269 274 271 263 263 263 254 248 246 251 253 253 254 254 254 254 250 242 240 243 249 256 257 255 254 244 239 236 236
83 63 44 6 326 311 306 303 276 267 276 267 257 257 262 259 271 278 273 263 257 239 218 243 251 251 253 256 258 260 254 246 242 242 243 246 249 250 253 246 234 234 240
84 54 8 351 332 320 313 308 310 309 299 290 280 273 262 269 276 277 275 269 253 209 217 240 247 250 252 253 253 254 257 255 247 242 243 243 244 246 247 247 241 238 240
91 21 341 311 307 303 303 301 299 301 308 308 300 291 286 281 281 280 275 253 241 212 230 240 247 250 251 252 252 252 255 258 251 245 244 244 241 241 243 244 241 239 240
359 305 296 293 294 297 300 299 297 297 297 298 302 305 301 298 291 285 255 232 249 248 241 243 247 249 249 249 250 251 251 254 253 247 246 244 241 238 241 243 243 238 237
290 294 302 295 299 303 300 297 298 299 299 300 301 301 307 310 304 300 277 258 259 261 257 252 250 249 248 249 249 248 251 252 252 249 248 245 241 238 241 244 243 239 234
283 296 306 304 293 292 294 294 295 296 297 297 296 295 293 295 291 289 285 275 266 264 262 258 255 253 250 249 248 248 250 251 249 247 246 243 239 238 238 239 241 240 237
273 285 291 293 294 294 294 293 294 294 295 296 299 300 297 292 290 290 288 283 277 268 261 260 261 258 254 251 249 249 252 252 250 246 245 243 239 237 236 235 236 236 234
274 286 292 294 295 296 298 298 297 297 296 297 298 300 302 300 296 294 292 289 286 280 272 263 263 264 261 254 249 248 251 253 251 249 246 246 242 237 234 233 234 236 231
279 287 292 296 299 301 302 302 302 301 301 302 301 300 300 300 298 296 295 293 289 285 280 272 265 267 270 268 259 254 252 253 255 251 246 244 243 239 235 235 234 232 231
279 284 288 291 295 299 302 303 304 304 305 305 303 302 303 302 301 301 301 300 297 291 287 282 275 275 277 274 271 269 261 254 251 248 244 240 240 236 235 234 233 231 227
282 285 288 291 293 296 300 302 303 305 304 304 304 304 305 305 303 304 305 305 303 297 294 292 288 288 287 283 282 282 268 255 249 243 241 239 238 236 232 235 235 227 222
Height
1531 1533 1534 1534 1535 1535 1535 1536 1536 1536 1536 1536 1536 1536 1536 1536 1535 1534 1534 1533 1532 1531 1531 1530 1529 1528 1527 1527 1526 1525 1525 1524 1522 1520 1521 1521 1520 1520 1520 1520 1520 1520 1521
1528 1530 1531 1532 1533 1533 1534 1534 1535 1535 1535 1535 1534 1534 1534 1533 1533 1532 1531 1530 1529 1528 1527 1526 1525 1524 1523 1523 1522 1521 1520 1519 1518 1516 1515 1515 1515 1515 1515 1514 1515 1515 1515
1525 1527 1529 1530 1531 1531 1532 1533 1533 1533 1533 1533 1532 1532 1532 1531 1530 1529 1528 1527 1526 1525 1524 1522 1522 1520 1519 1518 1517 1517 1516 1515 1514 1512 1510 1510 1510 1510 1509 1509 1508 1508 1509
1522 1524 1525 1527 1528 1529 1530 1530 1531 1531 1530 1530 1530 1529 1529 1528 1527 1526 1525 1523 1522 1521 1520 1518 1517 1516 1515 1514 1513 1512 1511 1510 1509 1507 1506 1505 1504 1504 1504 1503 1502 1503 1502
1518 1520 1522 1524 1525 1526 1527 1527 1528 1528 1528 1528 1527 1526 1526 1524 1523 1522 1521 1519 1518 1517 1515 1514 1513 1511 1510 1509 1508 1507 1506 1505 1504 1502 1501 1500 1499 1499 1499 1498 1497 1496 1496
1514 1516 1518 1520 1521 1523 1524 1524 1525 1525 1525 1524 1524 1523 1522 1521 1520 1518 1517 1515 1514 1512 1511 1509 1508 1506 1505 1504 1502 1501 1500 1499 1498 1497 1495 1494 1493 1493 1493 1492 1492 1491 1490
1510 1512 1515 1516 1517 1519 1520 1521 1521 1521 1521 1521 1520 1519 1518 1517 1516 1514 1512 1511 1509 1507 1506 1504 1502 1501 1500 1498 1497 1496 1495 1494 1493 1491 1489 1488 1488 1488 1487 1486 1486 1485 1484
1505 1508 1510 1512 1513 1515 1516 1517 1517 1517 1517 1516 1516 1515 1513 1512 1511 1510 1508 1506 1504 1502 1501 1499 1497 1495 1494 1492 1491 1489 1488 1488 1487 1485 1483 1482 1482 1482 1481 1481 1480 1479 1478
1501 1504 1506 1508 1509 1511 1511 1512 1513 1513 1512 1512 1511 1510 1508 1507 1506 1505 1503 1501 1499 1497 1495 1493 1491 1489 1488 1487 1485 1483 1482 1481 1481 1479 1477 1476 1475 1475 1475 1474 1473 1472 1471
1497 1500 1502 1504 1505 1506 1507 1508 1508 1508 1507 1507 1505 1504 1503 1501 1501 1499 1497 1495 1492 1491 1489 1487 1485 1483 1482 1481 1479 1477 1475 1474 1474 1472 1471 1470 1469 1468 1468 1467 1466 1465 1464
1494 1496 1498 1500 1501 1502 1503 1503 1503 1503 1502 1501 1499 1498 1497 1495 1494 1493 1491 1488 1486 1484 1482 1480 1479 1477 1475 1474 1472 1470 1469 1468 1466 1465 1463 1462 1461 1460 1460 1459 1459 1458 1457
1491 1493 1494 1496 1497 1498 1498 1498 1498 1497 1495 1494 1493 1491 1490 1489 1487 1486 1484 1482 1480 1477 1475 1473 1472 1470 1469 1467 1465 1464 1463 1461 1459 1457 1456 1454 1453 1452 1452 1451 1451 1450 1450
1487 1489 1490 1491 1492 1492 1492 1492 1492 1491 1489 1487 1486 1484 1482 1482 1480 1478 1476 1475 1472 1469 1467 1466 1465 1463 1461 1460 1458 1457 1456 1454 1452 1450 1448 1446 1446 1445 1444 1443 1443 1442 1442
1484 1485 1486 1487 1487 1486 1486 1486 1485 1483 1482 1480 1478 1476 1475 1473 1472 1471 1469 1467 1465 1462 1460 1458 1457 1456 1454 1452 1451 1450 1448 1446 1444 1442 1440 1439 1438 1437 1436 1436 1435 1435 1434
1481 1482 1482 1482 1482 1481 1480 1480 1478 1477 1476 1473 1471 1470 1467 1465 1464 1463 1461 1458 1456 1455 1453 1451 1449 1448 1446 1445 1443 1442 1440 1438 1436 1434 1433 1431 1430 1429 1429 1429 1428 1428 1427
1478 1478 1478 1478 1477 1476 1475 1474 1473 1472 1470 1467 1465 1463 1460 1458 1456 1454 1453 1450 1448 1447 1445 1443 1441 1440 1439 1437 1435 1434 1432 1430 1429 1427 1425 1424 1423 1422 1422 1422 1421 1420 1420
1476 1476 1475 1474 1473 1472 1470 1468 1466 1465 1463 1461 1459 1456 1454 1451 1449 1446 1444 1442 1440 1438 1436 1435 1434 1432 1431 1429 1428 1426 1424 1423 1422 1420 1418 1417 1416 1416 1415 1414 1414 1413 1413
1474 1474 1473 1471 1470 1468 1466 1464 1461 1458 1455 1453 1452 1450 1447 1444 1441 1439 1436 1434 1431 1430 1428 1427 1426 1424 1423 1421 1420 1418 1417 1416 1414 1412 1411 1410 1409 1409 1408 1408 1407 1407 1407
1472 1471 1469 1468 1466 1464 1461 1459 1457 1453 1450 1447 1444 1442 1440 1436 1433 1431 1428 1426 1424 1422 1420 1419 1418 1416 1415 1414 1412 1411 1410 1408 1407 1405 1404 1403 1402 1402 1401 1401 1401 1401 1401
1470 1468 1466 1464 1462 1459 1457 1454 1452 1448 1445 1442 1438 1435 1432 1429 1425 1423 1421 1418 1416 1414 1413 1411 1410 1409 1407 1406 1405 1404 1402 1401 1399 1398 1397 1396 1396 1395 1395 1395 1394 1394 1394
1467 1465 1463 1461 1458 1455 1453 1450 1446 1443 1439 1436 1432 1429 1426 1422 1419 1416 1413 1411 1409 1407 1405 1403 1402 1401 1400 1399 1397 1396 1395 1393 1392 1391 1390 1390 1389 1389 1388 1388 1388 1388 1388
1463 1461 1459 1457 1454 1451 1448 1444 1441 1437 1433 1430 1426 1422 1419 1416 1412 1409 1406 1404 1401 1399 1397 1396 1394 1393 1392 1391 1390 1388 1387 1386 1385 1384 1384 1383 1383 1382 1382 1382 1382 1382 1382
1459 1457 1455 1452 1449 1446 1442 1439 1435 1431 1427 1423 1420 1416 1412 1409 1406 1402 1399 1396 1394 1392 1390 1389 1387 1386 1385 1384 1383 1381 1380 1379 1378 1378 1377 1376 1376 1376 1376 1375 1376 1376 1376
1455 1452 1450 1446 1443 1440 1437 1433 1429 1426 1422 1418 1413 1410 1406 1402 1399 1396 1393 1390 1387 1385 1383 1382 1380 1379 1378 1377 1376 1374 1373 1372 1372 1371 1371 1370 1370 1370 1369 1369 1369 1370 1370
1450 1447 1444 1441 1437 1434 1431 1427 1423 1420 1416 1412 1408 1404 1400 1397 1393 1390 1387 1383 1381 1379 1377 1376 1374 1373 1372 1371 1369 1368 1367 1366 1366 1365 1365 1364 1364 1364 1364 1364 1364 1364 1365
1444 1442 1438 1435 1432 1428 1425 1421 1418 1414 1410 1406 1402 1398 1395 1391 1388 1384 1381 1378 1375 1373 1371 1370 1369 1368 1366 1365 1364 1363 1362 1361 1360 1360 1359 1359 1358 1359 1359 1359 1359 1360 1361